FENGYUN 1C DEB, 31901

Orbit data source: Space-Track

FENGYUN 1C DEB, 31901 is space debris in SSO originally from a launch on Mon, 10 May 1999 UTC launched from the Taiyaun Space Center, China (TSC). Fengyun 1C debris stems from the Chinese weather satellite Fengyun-1C, which was intentionally destroyed by a Chinese anti-satellite missile in 2007. This event dramatically increased the amount of space debris, with thousands of trackable fragments posing hazards to satellites and human spaceflight. The Fengyun 1C debris cloud has become a focal point in discussions about space sustainability and the need for international regulations to prevent the creation of new debris.

Loading next visibility...
Identifier
31901, 1999-025CLC
Orbit
SSO
Country
Flag of CNCN / PRC
Related business
Manufacturer
Unknown
Mission
Spacecraft
Bus & Motor
Unknown
Mass
Unknown
Launch date (UTC)
1999-05-10 (27 years ago)
Launch vehicle
Unknown
Launch site
Taiyaun Space Center, China (TSC)
Object type
Payload
Rocket body
Debris
Shape & HBR
Unknown shape, 0.1 m
Radar Cross Section
Small (<0.1 m²)

Expand to show TLE details & history
Last TLE update: 3 days ago

TLE from 3 days ago
0 FENGYUN 1C DEB
1 31901U 99025CLC 26206.12357444  .00000080  00000-0  85030-4 0  9993
2 31901  98.6269 157.3420 0130385 289.0494  69.6584 13.94261241665349
Epoch: 2026-07-25T02:57Z
TLE epoch observation values (Epoch: 2026-07-25T02:57:56.831Z)
Latitude
-0.00004°
Longitude
170.01484°
Altitude
884.659 km
Speed
7.426 km/s
True Right ascension
10h 29m 22s
True Declination
0° 00' 00"
Sunlit
Object was in daylight at epoch
Visualization orbit readout
Latitude
Unknown
Longitude
Unknown
Altitude
Unknown
Speed
Unknown
Apparent Right ascension
Unknown
Apparent Declination
Unknown
Sunlit
N/A
Visualization observer readout
Local Sidereal Time
19:40:04
Azimuth
Unknown
Elevation
Unknown
Doppler factor
Unknown
Orbital elements
Apogee altitude
1,005.963 km
Perigee altitude
815.886 km
Semi-major axis
7,289.061 km
Eccentricity
0.01304
Inclination
98.6269°
RAAN
157.342°
Arg. of periapsis
289.0494°
True anomaly
71.06716°
Mean anomaly
69.6584°
Eccentric anomaly
70.362°
Mean motion
3.48767 °/min
Orbital period
103.22 mins
BSTAR
0.00008503
Loading maneuver chart data...
Computing Atmospheric mass density...
Loading historical data...
Loading historical data...
Loading historical data...
Loading historical data...
Loading historical data...
Loading historical data...
Loading historical data...

Documentation

Showing up to 5 results
|